Regional Weather Roundup
Issued by NWS

Home | Current Version | Previous Version | Graphics & Text | Print | Product List | Glossary Off
Versions: 1 2 3 4 5 6 7 8 9 10 11 12 13 14 15 16 17 18 19 20 21 22 23 24 25 26 27 28 29 30 31 32 33 34 35 36 37 38 39 40 41 42 43 44 45 46 47 48 49 50

000
ASUS43 KLSX 050159
RWRMO

WEATHER SUMMARY FOR MISSOURI
NATIONAL WEATHER SERVICE SPRINGFIELD MO
900 PM CDT MON MAY 04 2015

NOTE: "FAIR" INDICATES FEW OR NO CLOUDS BELOW 12,000 FEET WITH NO
       SIGNIFICANT WEATHER AND/OR OBSTRUCTIONS TO VISIBILITY.
       CURRENT SKY AND/OR WEATHER CONDITIONS ARE NOT AVAILABLE FOR
       CHILLICOTHE AND FARMINGTON.

MOZ001>031-035>038-043-044-053-054-050300-
...NORTHERN AND WESTERN MISSOURI...

CITY           SKY/WX    TMP DP  RH WIND       PRES   REMARKS
KANSAS CTY INT TSTM      63  60  90 NE10      30.07R
KANSAS C DTWN  TSTM      65  61  87 VRB6      30.06R
LEE`S SUMMIT   CLOUDY    68  60  75 N12       30.07R
ST JOSEPH      RAIN      64  63  96 E7        30.04S FOG
CHILLICOTHE      N/A     65  62  90 VRB7G18   30.08R
KIRKSVILLE     CLOUDY    70  63  78 CALM      30.04S

$$
MOZ066>068-077>081-088>096-101>105-050300-
...SOUTHWEST MISSOURI...

CITY           SKY/WX    TMP DP  RH WIND       PRES   REMARKS
SPRINGFIELD    CLEAR     70  54  56 S6        30.05R
JOPLIN         CLEAR     70  59  68 S8        30.05R

$$
MOZ032>034-039>042-045>050-055>058-069>072-050300-
...CENTRAL MISSOURI...

CITY           SKY/WX    TMP DP  RH WIND       PRES   REMARKS
COLUMBIA       CLOUDY    74  59  59 SE5       30.06R
JEFFERSON CITY MOCLDY    74  57  55 E3        30.05R
ROLLA          PTCLDY    70  55  59 SE6       30.07R
SEDALIA        CLOUDY    71  60  68 S6        30.05R
OSAGE BEACH    PTCLDY    73  54  49 CALM      30.06R

$$
MOZ051-052-059>065-050300-
...EAST CENTRAL MISSOURI...

CITY           SKY/WX    TMP DP  RH WIND       PRES   REMARKS
ST LOUIS INTL  MOCLDY    80  55  42 S6        30.08R
SPIRIT OF STL  MOCLDY    76  56  49 S3        30.06R
ST CHARLES     PTCLDY    76  55  48 S8        30.06R

$$
MOZ072>076-082>087-097>100-106>115-050300-
...SOUTH CENTRAL AND SOUTHEAST MISSOURI...

CITY           SKY/WX    TMP DP  RH WIND       PRES   REMARKS
CAPE GIRARDEAU CLEAR     73  54  51 S7        30.11R
FARMINGTON     CLEAR     72  54  53 S5        30.14R
POPLAR BLUFF   CLEAR     73  54  51 S6        30.09R
WEST PLAINS    CLEAR     71  53  52 S6        30.10R

$$


USA.gov is the U.S. government's official web portal to all federal, state and local government web resources and services.